This is the latest recevied weather packets stored in our database for station/object SP8PUB-10. If no packets are shown the sender has not sent any weather packets the latest 10 day(s).
| Time | Temp. | Humidity | Pressure | Rain* | Wind** | Luminosity | Snow |
|---|---|---|---|---|---|---|---|
| 1777735224 | 20.56° C | 46% | 1022.7 hPa | - | - | - | - |
| 1777734324 | 20.56° C | 46% | 1022.9 hPa | - | - | - | - |
| 1777733423 | 20.56° C | 46% | 1023.1 hPa | - | - | - | - |
| 1777732523 | 20.56° C | 46% | 1023.2 hPa | - | - | - | - |
| 1777731623 | 20.56° C | 47% | 1023.3 hPa | - | - | - | - |
| 1777730723 | 20.56° C | 46% | 1023.5 hPa | - | - | - | - |
| 1777729823 | 20° C | 46% | 1023.7 hPa | - | - | - | - |
| 1777728923 | 20° C | 46% | 1023.8 hPa | - | - | - | - |
| 1777728023 | 19.44° C | 46% | 1024 hPa | - | - | - | - |
| 1777727123 | 20° C | 46% | 1024.1 hPa | - | - | - | - |
| 1777726223 | 19.44° C | 47% | 1024.5 hPa | - | - | - | - |
| 1777725323 | 19.44° C | 46% | 1024.7 hPa | - | - | - | - |
| 1777724422 | 19.44° C | 46% | 1024.9 hPa | - | - | - | - |
| 1777723522 | 20° C | 46% | 1025.1 hPa | - | - | - | - |
| 1777722622 | 19.44° C | 47% | 1025.2 hPa | - | - | - | - |
| 1777721722 | 20° C | 47% | 1025.4 hPa | - | - | - | - |
| 1777720821 | 18.33° C | 48% | 1025.4 hPa | - | - | - | - |
| 1777719921 | 18.89° C | 48% | 1025.6 hPa | - | - | - | - |
| 1777719021 | 20° C | 47% | 1025.9 hPa | - | - | - | - |
| 1777718121 | 20.56° C | 46% | 1026 hPa | - | - | - | - |
| 1777716326 | 18.89° C | 49% | 1026.2 hPa | - | - | - | - |
| 1777715426 | 18.89° C | 48% | 1026.3 hPa | - | - | - | - |
| 1777714526 | 18.89° C | 48% | 1026.3 hPa | - | - | - | - |
| 1777713626 | 18.89° C | 49% | 1026.5 hPa | - | - | - | - |
| 1777712726 | 21.11° C | 46% | 1026.8 hPa | - | - | - | - |
* Rain since midnight (hover to see other rain measurements)
** Current wind speed in m/s (hover to see current wind gust speed)